Regional Weather Roundup
Issued by NWS Wakefield, VA

Home | Current Version | Previous Version | Graphics & Text | Print | Product List | Glossary On
Versions: 1 2 3 4 5 6 7 8 9 10 11 12 13 14 15 16 17 18 19 20 21 22 23 24 25 26 27 28 29 30 31 32 33 34 35 36 37 38 39 40 41 42 43 44 45 46 47 48 49 50
000
ASUS41 KAKQ 232115
RWRAKQ

REGIONAL WEATHER ROUNDUP
NATIONAL WEATHER SERVICE WAKEFIELD VA
500 PM EDT MON APR 23 2018

Note: "fair" indicates few or no clouds below 12,000 feet with no
significant weather and/or obstructions to visibility. * = Denotes
station may not report precipitation (e.g., rain,snow,etc.),
thunder or fog.

VAZ042-051-052>054-056-232200-
NORTHERN VIRGINIA

CITY           SKY/WX    TMP DP  RH WIND       PRES   REMARKS
WASH NATIONAL  PTSUNNY   67  42  40 S15       30.34F
DULLES         PTSUNNY   65  43  44 SE13G21   30.33F
FORT BELVOIR   NOT AVBL
QUANTICO       PTSUNNY   64  46  52 SE23      30.36S
FREDERICKSBRG* CLOUDY    66  46  48 SE12      30.33R
STAFFORD*      CLOUDY    65  44  45 E12       30.38R
WARRENTON      CLOUDY    67  39  36 E14G21    30.33R
CULPEPER*      CLOUDY    67  44  42 SE7       30.33R
MANASSAS*      CLOUDY    66  45  46 SE16      30.34S
LEESBURG*      CLOUDY    68  45  42 SE13G18   30.33F
WINCHESTER     CLOUDY    63  43  48 SE14      30.32S
FRONT ROYAL*   CLOUDY    64  45  48 SE10      30.30S
LURAY*         FAIR      64  43  45 SE8       30.30S
$$

VAZ048-049-060>072-079>083-232200-
CENTRAL AND SOUTH CENTRAL VIRGINIA

CITY           SKY/WX    TMP DP  RH WIND       PRES   REMARKS
RICHMOND       FAIR      64  40  41 E17G23    30.33S
CHESTERFIELD*  FAIR      66  44  45 E12G22    30.32R
PETERSBURG*    PTSUNNY   67  43  42 E14G20    30.31S
HANOVER        FAIR      66  42  41 E10G25    30.34S
TAPPAHANNOCK*  FAIR      63  35  34 E13G23    30.37S
QUINTON*       FAIR      63  36  36 E15G30    30.34F
CHARLOTTSVILLE PTSUNNY   68  42  38 SE8       30.29S
GORDONSVILLE*  MOCLDY    67  45  45 SE8G16    30.30S
ORANGE*        FAIR      66  43  42 SE8G18    30.31S
LOUISA*        PTSUNNY   68  43  41 E8        30.35R
BUMPASS*       FAIR      67  41  39 E10G17    30.32R
FARMVILLE*     CLOUDY    67  44  42 SE10      30.28S
CREWE*         MOCLDY    67  46  47 SE13G21   30.29S
FORT PICKETT*  MOCLDY    67  46  48 SE14G23   30.30S
CHASE CITY*    MOCLDY    65  48  53 SE8G17    30.27F
CLARKSVILLE*   MOCLDY    64  46  52 E10G17    30.26F
SOUTH HILL*    CLOUDY    65  49  56 SE6       30.34S
LAWRENCEVILLE* CLOUDY    66  47  50 SE12      30.30R
EMPORIA*       CLOUDY    64  46  52 E15G23    30.32S
$$

VAZ088>098-232200-
SOUTHEAST VIRGINIA

CITY           SKY/WX    TMP DP  RH WIND       PRES   REMARKS
NORFOLK        FAIR      65  39  38 SE14G23   30.36F
VIRGINIA BEACH PTSUNNY   60  43  53 E22G31    30.36F
NORFOLK NAVAL  CLOUDY    65  37  35 SE16G25   30.38S
WEST POINT*    FAIR      63  27  25 E15G23    30.38F
SALUDA*        FAIR      60  31  33 SE13      30.38S
NEWPORT NEWS   FAIR      63  39  41 E17G24    30.37F
LANGLEY AFB    NOT AVBL
FORT EUSTIS    NOT AVBL
WILLIAMSBURG*  FAIR      66  34  30 CALM      30.37S
HR EXEC AP*    FAIR      65  39  38 E20G28    30.36F
FRANKLIN*      PTSUNNY   66  45  46 E14G20    30.34R
US460-WAKEFLD  FAIR      66  45  46 E14G21    30.34R
$$

VAZ020-022-025-037-045-232200-
WEST CENTRAL AND SOUTHWEST VIRGINIA

CITY           SKY/WX    TMP DP  RH WIND       PRES   REMARKS
STAUNTON*      CLOUDY    63  43  48 SE10      30.31S
WAYNESBORO*    CLOUDY    62  43  50 E8        30.29S
HOT SPRINGS VA CLOUDY    50  38  62 E10G23    30.28F
LYNCHBURG      CLOUDY    63  44  50 SE9       30.27F
DANVILLE       LGT RAIN  59  55  87 VRB3      30.23F
SOUTH BOSTON*  CLOUDY    66  45  45 E8        30.25F
MARTINSVILLE   CLOUDY    57  53  88 NE6       30.25F
ROANOKE        LGT RAIN  58  49  72 SE7       30.27F
BLACKSBURG     LGT RAIN  52  46  80 E8G16     30.27F
DUBLIN*        LGT RAIN  53  49  86 E7        30.25S
MARION*        RAIN      51  48  89 E14G22    30.22S
HILLSVILLE*    RAIN      50  48  95 E7        30.22R
RICHLANDS*     CLOUDY    53  15  22 E10G25    30.15F
WISE*          FAIR      55  45  67 E13G25    30.10F
ABINGDON*      CLOUDY    58  47  65 SE17G28   30.12F
$$

MDZ021>025-VAZ099-100-232200-
SOUTHERN MARYLAND AND THE DELMARVA PENINSULA

CITY           SKY/WX    TMP DP  RH WIND       PRES   REMARKS
PATUXENT RIVER PTSUNNY   62  38  40 SE15      30.38F
BAY BRIDGE APT FAIR      68  45  42 S12       30.36F
LEONARDTOWN    FAIR      61  32  33 SE9       30.40R
DOVER          NOT AVBL
GEORGETOWN     FAIR      66  25  21 SE12      30.41F
EASTON         PTSUNNY   70  36  28 SE14G21   30.40F
CAMBRIDGE      SUNNY     64  32  29 SE14G20   30.37F
SALISBURY      FAIR      63  23  21 SE14G23   30.40F
TANGIER        FAIR      61  36  39 SE13G20   30.39F
OCEAN CITY     FAIR      56  40  55 SE8       30.43F
WALLOPS ISLAND FAIR      61  34  36 SE16G23   30.41F
ACCOMACK*      FAIR      59  38  44 SE12      30.40S
$$

NCZ012>017-030>032-232200-
NORTH CENTRAL AND EASTERN NORTH CAROLINA

CITY           SKY/WX    TMP DP  RH WIND       PRES   REMARKS
ROANOKE RAPIDS CLOUDY    66  48  52 E8        30.29S
RALEIGH        CLOUDY    64  53  67 SE16G25   30.22F
ELIZABETH CITY FAIR      66  47  50 E20G26    30.36S
AHOSKIE*       PTSUNNY   65  48  55 E8G17     30.32S
EDENTON*       CLOUDY    65  51  61 E12G18    30.33F
CURRITUCK*     NOT AVBL
KILL DEVIL HLS FAIR      59  48  66 E6G17     30.35S
MANTEO         FAIR      63  46  54 E14G22    30.36S
CAPE HATTERAS  FAIR      66  50  56 E14       30.33F
TARBORO*       NOT AVBL
GOLDSBORO      PTSUNNY   66  53  62 E20G26    30.22F
WASHINGTON     PTSUNNY   66  51  57 SE14G24   30.30S
GREENVILLE     FAIR      68  50  52 SE15G23   30.29S
NEW BERN       LGT RAIN  65  51  60 E13G23    30.29F
WILMINGTON     LGT RAIN  63  55  75 E12G21    30.21F
$$

VAZ048-232200-
ELSEWHERE

CITY           SKY/WX    TMP DP  RH WIND       PRES   REMARKS
HARRISBURG PA  PTSUNNY   67  38  34 SE15      30.33F
BALTIMORE      PTSUNNY   67  44  43 SE13G21   30.35F
ANNAPOLIS      FAIR      66  46  48 S12G21    30.36F
ANDREWS AFB    NOT AVBL
PHILADELPHIA   FAIR      67  29  24 S14G20    30.39F
HENDERSON NC   FAIR      63  44  50 SE15G21   30.26F
GREENSBORO     CLOUDY    59  55  87 E17G25    30.17F
ROCKY MOUNT    CLOUDY    67  49  52 E8        30.27F
$$

VAZ100-232200-
MARINE

STATION/POSITION TIME  TEMP    WIND        PRES    WAVE   SWELL
                       AIR SEA DIR/SP/G            HT/PER HT/PER
                 (UTC) (F)     (DEG/KT/KT) (MB)    (FT/S) (FT/S)
BRANDYWINE LGT   2048   52     170/ 13/ 15 1030.9R
CAPE MAY NJ      2048   55 53  150/ 11/ 15 1030.2R
LEWES DE         2048   58 52  170/ 10/ 16 1030.5R
15NM E FENWICK I 2050   50 49  110/  8/ 10 1031.1    1/12   2/12
OCEAN-CITY-INLET 2048   55 51  150/  5/  7 1030.8F
WACHAPREAGUE VA  2048   56 59  110/ 11/ 15 1029.5F
THOMAS POINT MD  2000   58 54  190/ 10/ 12 1029.8
GOOSES REEF MD   2100   57     180/ 16/ 19 1028.5
COVE POINT MD    2048   57     190/ 14/ 16 1029.4F
SOLOMONS ISLAND  2048   59 55  140/ 18/ 21 1028.6F
BISHOPS HEAD MD  2048   60 63  140/ 14/ 17 1029.3F
PINEY POINT MD   2042          150/ 14/ 15   N/A
POTOMAC MD       2100   57 55  140/ 10/ 12 1030.3    1/ 2
CAMBRIDGE MD     2048   67 59              1029.3F
LEWISETTA VA     2048   61 57  140/ 14/ 18 1028.7F
RAPPAHANNOCK LGT 2042          120/ 17/ 20 1029.6F
STINGRAY PT      2100   57 55  150/ 14/ 16 1030.5    2/ 3
YORK RVR RNG VA  2048   57     130/ 19/ 20 1028.9F
YORKTOWN VA      2048   60 56  130/ 13/ 19 1028.3F
DOMINION TERM VA 2048   62     100/ 12/ 17 1028.3F
KIPTOPEKE VA     2048      55  120/ 13/ 19   N/A
CAPE HENRY VA    2048   56     100/ 19/ 21   N/A
WILLOUBY STN VA  2048   59     100/ 16/ 18 1028.2F
S CRANEY ISL VA  2048   62     130/ 17/ 21 1028.0F
CAPE HENRY BUOY  2100      52                N/A     3/ 4
1ST LANDING BUOY 2100   56 54  130/ 17/ 21 1028.3    3/ 3
64NM E OF VA BCH 2050   54 51   80/ 12/ 12 1029.4F   3/ 5   2/ 8
DUCK PIER NC     2048   57 54   80/ 19/ 21 1027.7F
44100 DUCK FRF   2045      51                N/A     3/ 5
44056 DUCK FRF   2100      54                N/A     3/ 5
OREGON INLET NC  2042   59 59   70/  9/ 14 1027.6F
HATTERAS NC      2048   64 62  100/ 10/ 14 1026.7F
DIAMOND SHLS NC  2100   67 73  100/ 19/ 23 1027.0
CAPE LOOKOUT NC  2000          100/ 19/ 21 1026.1F
$$



USA.gov is the U.S. government's official web portal to all federal, state and local government web resources and services.